Time,TemperatureF,DewpointF,PressureIn,WindDirection,WindDirectionDegrees,WindSpeedMPH,WindSpeedGustMPH,Humidity,HourlyPrecipIn,Conditions,Clouds,dailyrainin,SoftwareType,DateUTC
2013-08-26 00:14:00,65.0,57.0,30.25,South,188,0.0,2.0,76,0.00,,,0.00,,2013-08-26 04:14:00,
2013-08-26 00:53:00,65.0,57.0,30.24,South,184,0.0,2.0,75,0.00,,,0.00,,2013-08-26 04:53:00,
2013-08-26 01:13:00,64.0,57.0,30.24,South,184,0.0,1.0,77,0.00,,,0.00,,2013-08-26 05:13:00,
2013-08-26 01:23:00,63.0,56.0,30.24,South,184,0.0,0.0,79,0.00,,,0.00,,2013-08-26 05:23:00,
2013-08-26 01:43:00,63.0,56.0,30.23,South,184,0.0,1.0,79,0.00,,,0.00,,2013-08-26 05:43:00,
2013-08-26 01:52:00,63.0,56.0,30.22,South,184,0.0,1.0,79,0.00,,,0.00,,2013-08-26 05:52:00,
2013-08-26 02:12:00,63.0,56.0,30.23,South,184,0.0,0.0,79,0.00,,,0.00,,2013-08-26 06:12:00,
2013-08-26 02:22:00,63.0,57.0,30.23,South,184,0.0,0.0,80,0.00,,,0.00,,2013-08-26 06:22:00,
2013-08-26 02:42:00,64.0,57.0,30.22,South,184,0.0,1.0,78,0.00,,,0.00,,2013-08-26 06:42:00,
2013-08-26 02:52:00,64.0,57.0,30.22,South,184,0.0,1.0,77,0.00,,,0.00,,2013-08-26 06:52:00,
2013-08-26 03:22:00,64.0,56.0,30.23,South,184,0.0,1.0,76,0.00,,,0.00,,2013-08-26 07:22:00,
2013-08-26 03:52:00,64.0,57.0,30.21,South,184,0.0,1.0,77,0.00,,,0.00,,2013-08-26 07:52:00,
2013-08-26 04:12:00,64.0,57.0,30.19,South,182,0.0,3.0,77,0.00,,,0.00,,2013-08-26 08:12:00,
2013-08-26 04:22:00,64.0,57.0,30.19,South,190,0.0,2.0,77,0.00,,,0.00,,2013-08-26 08:22:00,
2013-08-26 04:52:00,64.0,57.0,30.19,ESE,113,0.0,2.0,77,0.00,,,0.00,,2013-08-26 08:52:00,
2013-08-26 05:11:00,63.0,56.0,30.19,ESE,123,0.0,3.0,79,0.00,,,0.00,,2013-08-26 09:11:00,
2013-08-26 05:22:00,63.0,56.0,30.19,ESE,120,0.0,2.0,79,0.00,,,0.00,,2013-08-26 09:22:00,
2013-08-26 05:53:00,62.0,56.0,30.19,ESE,119,0.0,3.0,81,0.00,,,0.00,,2013-08-26 09:53:00,
2013-08-26 06:12:00,63.0,57.0,30.18,ESE,118,0.0,2.0,81,0.00,,,0.00,,2013-08-26 10:12:00,
2013-08-26 06:23:00,63.0,57.0,30.19,ESE,118,0.0,3.0,81,0.00,,,0.00,,2013-08-26 10:23:00,
2013-08-26 06:52:00,63.0,57.0,30.20,ESE,118,0.0,0.0,82,0.00,,,0.00,,2013-08-26 10:52:00,
2013-08-26 07:12:00,62.0,57.0,30.20,ESE,117,0.0,2.0,84,0.00,,,0.00,,2013-08-26 11:12:00,
2013-08-26 07:22:00,62.0,57.0,30.19,ESE,118,0.0,1.0,84,0.00,,,0.00,,2013-08-26 11:22:00,
2013-08-26 07:52:00,63.0,58.0,30.21,SSW,198,0.0,3.0,84,0.00,,,0.00,,2013-08-26 11:52:00,
2013-08-26 08:12:00,63.0,58.0,30.19,South,183,1.0,3.0,84,0.00,,,0.00,,2013-08-26 12:12:00,
2013-08-26 08:22:00,64.0,59.0,30.19,South,176,1.0,3.0,84,0.00,,,0.00,,2013-08-26 12:22:00,
2013-08-26 08:52:00,65.0,60.0,30.20,SSW,192,2.0,3.0,84,0.00,,,0.00,,2013-08-26 12:52:00,
2013-08-26 09:12:00,66.0,61.0,30.20,South,175,2.0,3.0,83,0.00,,,0.00,,2013-08-26 13:12:00,
2013-08-26 09:22:00,66.0,61.0,30.19,SSW,199,1.0,3.0,83,0.00,,,0.00,,2013-08-26 13:22:00,
2013-08-26 09:42:00,68.0,61.0,30.20,West,260,1.0,5.0,79,0.00,,,0.00,,2013-08-26 13:42:00,
2013-08-26 09:52:00,69.0,62.0,30.19,SW,230,2.0,5.0,78,0.00,,,0.00,,2013-08-26 13:52:00,
2013-08-26 10:22:00,68.0,62.0,30.19,SSW,206,1.0,5.0,82,0.00,,,0.00,,2013-08-26 14:22:00,
2013-08-26 10:42:00,72.0,64.0,30.19,SW,232,2.0,6.0,77,0.00,,,0.00,,2013-08-26 14:42:00,
2013-08-26 10:52:00,73.0,65.0,30.18,SSW,198,2.0,6.0,75,0.00,,,0.00,,2013-08-26 14:52:00,
2013-08-26 11:12:00,75.0,65.0,30.17,South,187,2.0,3.0,72,0.00,,,0.00,,2013-08-26 15:12:00,
2013-08-26 11:22:00,76.0,66.0,30.17,SW,232,2.0,5.0,71,0.00,,,0.00,,2013-08-26 15:22:00,
2013-08-26 11:47:00,77.0,65.0,30.16,SW,217,2.0,7.0,67,0.00,,,0.00,,2013-08-26 15:47:00,
2013-08-26 11:59:00,78.0,66.0,30.16,SSW,207,3.0,8.0,67,0.00,,,0.00,,2013-08-26 15:59:00,
2013-08-26 12:17:00,80.0,68.0,30.14,SW,231,3.0,7.0,66,0.00,,,0.00,,2013-08-26 16:17:00,
2013-08-26 12:29:00,80.0,66.0,30.14,West,259,2.0,6.0,62,0.00,,,0.00,,2013-08-26 16:29:00,
2013-08-26 12:59:00,82.0,65.0,30.14,NW,310,7.0,14.0,56,0.00,,,0.00,,2013-08-26 16:59:00,
2013-08-26 13:12:00,82.0,65.0,30.13,West,264,3.0,12.0,57,0.00,,,0.00,,2013-08-26 17:12:00,
2013-08-26 13:24:00,82.0,65.0,30.11,West,277,4.0,8.0,56,0.00,,,0.00,,2013-08-26 17:24:00,
2013-08-26 13:43:00,84.0,66.0,30.11,WSW,249,6.0,13.0,55,0.00,,,0.00,,2013-08-26 17:43:00,
2013-08-26 13:53:00,83.0,67.0,30.11,SW,233,3.0,9.0,58,0.00,,,0.00,,2013-08-26 17:53:00,
2013-08-26 14:12:00,83.0,66.0,30.09,SW,229,3.0,6.0,57,0.00,,,0.00,,2013-08-26 18:12:00,
2013-08-26 14:22:00,84.0,68.0,30.09,SW,215,2.0,7.0,59,0.00,,,0.00,,2013-08-26 18:22:00,
2013-08-26 14:52:00,85.0,68.0,30.08,WSW,258,3.0,7.0,57,0.00,,,0.00,,2013-08-26 18:52:00,
2013-08-26 15:11:00,84.0,68.0,30.06,West,278,3.0,12.0,58,0.00,,,0.00,,2013-08-26 19:11:00,
2013-08-26 15:22:00,85.0,69.0,30.05,SW,223,3.0,6.0,58,0.00,,,0.00,,2013-08-26 19:22:00,
2013-08-26 15:42:00,85.0,68.0,30.05,SW,225,3.0,7.0,56,0.00,,,0.00,,2013-08-26 19:42:00,
2013-08-26 15:52:00,83.0,69.0,30.04,SSW,206,4.0,8.0,63,0.00,,,0.00,,2013-08-26 19:52:00,
2013-08-26 16:11:00,85.0,69.0,30.03,SSW,194,5.0,9.0,58,0.00,,,0.00,,2013-08-26 20:11:00,
2013-08-26 16:22:00,85.0,69.0,30.03,SSW,209,3.0,9.0,59,0.00,,,0.00,,2013-08-26 20:22:00,
2013-08-26 16:43:00,85.0,70.0,30.01,South,186,5.0,9.0,60,0.00,,,0.00,,2013-08-26 20:43:00,
2013-08-26 16:52:00,85.0,68.0,30.01,SW,218,3.0,9.0,57,0.00,,,0.00,,2013-08-26 20:52:00,
2013-08-26 17:22:00,85.0,69.0,30.01,WSW,239,3.0,7.0,58,0.00,,,0.00,,2013-08-26 21:22:00,
2013-08-26 17:55:00,84.0,68.0,30.00,SW,216,4.0,9.0,58,0.00,,,0.00,,2013-08-26 21:55:00,
2013-08-26 18:16:00,83.0,67.0,30.00,SW,227,2.0,7.0,59,0.00,,,0.00,,2013-08-26 22:16:00,
2013-08-26 18:26:00,83.0,67.0,29.99,SSW,212,6.0,9.0,59,0.00,,,0.00,,2013-08-26 22:26:00,
2013-08-26 18:53:00,82.0,68.0,29.99,SW,225,2.0,5.0,63,0.00,,,0.00,,2013-08-26 22:53:00,
2013-08-26 19:22:00,80.0,67.0,29.98,SSW,204,3.0,6.0,65,0.00,,,0.00,,2013-08-26 23:22:00,
2013-08-26 19:52:00,78.0,68.0,29.99,SSW,198,1.0,2.0,71,0.00,,,0.00,,2013-08-26 23:52:00,
2013-08-26 20:22:00,76.0,67.0,29.98,SSW,193,1.0,3.0,74,0.00,,,0.00,,2013-08-27 00:22:00,
2013-08-26 20:42:00,76.0,67.0,29.98,South,190,1.0,3.0,75,0.00,,,0.00,,2013-08-27 00:42:00,
2013-08-26 20:52:00,76.0,68.0,29.98,SSW,205,1.0,3.0,76,0.00,,,0.00,,2013-08-27 00:52:00,
2013-08-26 21:12:00,75.0,67.0,29.98,South,187,1.0,3.0,77,0.00,,,0.00,,2013-08-27 01:12:00,
2013-08-26 21:22:00,75.0,67.0,29.98,SSW,195,1.0,3.0,77,0.00,,,0.00,,2013-08-27 01:22:00,
2013-08-26 21:52:00,74.0,67.0,29.98,South,189,1.0,3.0,78,0.00,,,0.00,,2013-08-27 01:52:00,
2013-08-26 22:22:00,74.0,67.0,29.98,South,189,0.0,1.0,80,0.00,,,0.00,,2013-08-27 02:22:00,
2013-08-26 22:52:00,73.0,66.0,29.97,South,184,1.0,3.0,80,0.00,,,0.00,,2013-08-27 02:52:00,
2013-08-26 23:23:00,74.0,67.0,29.97,SSW,206,0.0,3.0,80,0.00,,,0.00,,2013-08-27 03:23:00,
2013-08-26 23:44:00,74.0,67.0,29.96,SSW,206,1.0,2.0,80,0.00,,,0.00,,2013-08-27 03:44:00,
2013-08-26 23:58:00,73.0,66.0,29.96,SSW,206,1.0,3.0,80,0.00,,,0.00,,2013-08-27 03:58:00,